User: anonymous
Location: Unspecified
(0.0000°N, 0.0000°E)
Time: 13:58:24
(UTC+00:00)
Language:

ASTRA 1KR - Orbit

View from above orbital plane
View from above orbital plane
View from above satellite
View from above satellite

Ground track
Ground track

The orbit data is extracted from the following two-line orbital elements,

1 29055U 06012A   14201.25816019  .00000100  00000-0  00000+0 0   979
2 29055 000.0934 297.5836 0003687 248.7630 223.7331 01.00271711 30254
Epoch (UTC): 20 July 2014 06:11:45
Eccentricity: 0.0003687
inclination: 0.0934°
perigee height: 35770 km
apogee height: 35802 km
right ascension of ascending node: 297.5836°
argument of perigee: 248.7630°
revolutions per day: 1.00271711
mean anomaly at epoch: 223.7331°
orbit number at epoch: 3025

The dashed part of the orbit path shows where the satellite is in the earth's shadow,  

DLR